ECHOSTAR 23 (42070 NORAD) Tracking and Keplerian Element Data

This shows tracking and keplerian element data for the satellite.

Feedback or suggestion? Click here.




ElementValue
Catalog42070
NameECHOSTAR 23
Epoch Orbit1656
Epoch Day261.85458446
Epoch Year2021
RAAN161.0162
Inclination0.0281
Eccentricity0.0002212
Argument of Perigee23.2809
Mean Anonmoly53.4395
Mean Motion1.00269189
Decay Rate-2.94E-06
L11 42070U 17014A 21261.85458446 -.00000294 00000-0 00000-0 0 9998
L22 42070 0.0281 161.0162 0002212 23.2809 53.4395 1.00269189 16567

Live tracking and technical data element details for ECHOSTAR 23 (NORAD 42070). ECHOSTAR 23 can be tracked NOW for your location showing map with azimuth and elevation plus other details from your city location.

Track the satellite on the map from your city or location and see movement details for azimuth, elevation, latitude, longitude, range, height, and movement on the map or in text.







IsCatalogInMostPopularTable: catalog: 42070, numindb: 674
Update: records affected: 1



GetName: 42070 ECHOSTAR 23

Hit Count: updated at: Sun, 26 Sep 2021 01:00:00 GMT